sat.trackr.live / text

‹ back to catalog

STARLINK-33645

NORAD 63412 · 2025-065P

PAYLOAD ACTIVE UNKNOWN

§ Identity

Operator
Country
US
Launch date
2025-03-31
Launch site
AFETR
Launch vehicle
Mass (kg)
RCS (m²)

Purposes: comms

External: N2YO · Heavens-Above · Gunter

§ Orbital elements

Epoch: 2026-09-20T21:06:18.304992Z

Period
94.27 min
Inclination
42.9997°
Eccentricity
0.0001638
Mean motion
15.27579589 rev/d
Perigee alt
481.9 km
Apogee alt
484.2 km
Semi-major
6,861.2 km
B*
6.2081e-4
RAAN
87.9663°
Arg perigee
270.7024°
Mean anomaly
89.3640°
Rev number
8,265

§ Raw data

STARLINK-336451 63412U 25065P   26263.87937853  .00016860  00000+0  62081-3 0  99932 63412  42.9997  87.9663 0001638 270.7024  89.3640 15.27579589 82656

JSON: /api/v1/satellites/63412 · /tle

For live sub-satellite position, see the globe view (requires WebGL).

§ Visibility from observer

Set your observer location to see the next 7 days of passes ≥ 10°. The values pass through the URL so the page stays shareable.

No JS? Fill the form by hand. The geolocation button needs JavaScript.